Regional Weather Roundup
Issued by NWS Albany, NY

Home | Current Version | Previous Version | Text Only | Print | Product List | Glossary On
Versions: 1 2 3 4 5 6 7 8 9 10 11 12 13 14 15 16 17 18 19 20 21 22 23 24 25 26 27 28 29 30 31 32 33 34 35 36 37 38 39 40 41 42 43 44 45 46 47 48 49 50
267
ASUS41 KALY 130110
RWRALY

NEW YORK STATE HOURLY WEATHER ROUNDUP
NATIONAL WEATHER SERVICE ALBANY NY
800 PM EST FRI FEB 12 2016

NOTE: "FAIR" INDICATES FEW OR NO CLOUDS BELOW 12,000 FEET WITH NO
SIGNIFICANT WEATHER AND/OR NO OBSTRUCTIONS TO VISIBILITY.

NYZ032-033-038>043-046>054-057>066-NYZ062>081-130200-
EAST


CITY           SKY/WX    TMP DP  RH WIND       PRES   REMARKS
ALBANY         PTCLDY    19   3  49 S8        29.91F WCI   9
GLENS FALLS    CLEAR     18   1  47 S7        29.89F WCI   9
POUGHKEEPSIE   PTCLDY    23   8  52 SW3       29.96F
NEWBURGH       CLOUDY    19   5  53 SW9       29.95F WCI   9
MONTGOMERY     CLOUDY    20   4  50 S6        29.93F WCI  12
WHITE PLAINS   FLURRIES  21   5  50 W6        29.94F WCI  13
ISLIP          FLURRIES  23  13  65 NW7       29.97F WCI  15
NEW YORK CITY  CLOUDY    25   5  42 W8        29.98F WCI  16
CENTRAL PARK   CLOUDY    23   5  46 VRB7      30.00F WCI  15
$$

NYZ005>009-017-018-044>046-055-056-130200-
CENTRAL


CITY           SKY/WX    TMP DP  RH WIND       PRES   REMARKS
FULTON         MOCLDY    23   6  48 SW14G21   29.82F WCI  11
SYRACUSE       MOCLDY    19   6  57 S15       29.84F WCI   5
ROME           PTCLDY    17   3  54 VRB6      29.87F WCI   9
ELMIRA         PTCLDY    18   8  65 W6        29.86F WCI  10
BINGHAMTON     CLOUDY    14   9  80 SW8       29.81F WCI   3
MONTICELLO     CLOUDY    14  10  85 CALM      29.86F
$$

NYZ026>034-041>043-130200-
NORTH


CITY           SKY/WX    TMP DP  RH WIND       PRES   REMARKS
WATERTOWN      SNOW      20  17  88 SW13      29.79F VSB 1/2 WCI   7
FORT DRUM      NOT AVBL
MASSENA        LGT SNOW  21  15  78 S15G25    29.77F WCI   8
SARANAC LAKE   CLOUDY    14   4  64 SW14      29.68F WCI  -1
PLATTSBURGH    CLOUDY    19   5  54 S8        29.82F WCI   9
$$

NYZ001>004-010>016-019>021-130200-
WEST


CITY           SKY/WX    TMP DP  RH WIND       PRES   REMARKS
NIAGARA FALLS  MOCLDY    17   8  67 W13       29.85S WCI   4
BUFFALO        MOCLDY    18   9  68 W9        29.85S WCI   7
DUNKIRK        CLOUDY    21   9  59 NW15G23   29.88S WCI   8
JAMESTOWN      CLOUDY    16  10  79 SW13      29.78S VSB 1/2 WCI   2
WELLSVILLE     MOCLDY    13   6  74 SW14      29.76F WCI  -2
ROCHESTER      LGT SNOW  20  15  81 SW15      29.84F WCI   6
PENN YAN       CLEAR     19   8  62 SW13G21   29.83F WCI   6
$$

             KEY
       WCI = WIND CHILL INDEX
       VSB = VISIBILITY
       HX  = HEAT INDEX
$$




USA.gov is the U.S. government's official web portal to all federal, state and local government web resources and services.